Location: Treviso
(45.6669°N, 12.2430°E)
Time: 00:40:57
(UTC+02:00)

ISS - Pass Details

Date: 24 May 2017
Orbit: 402 x 408 km, 51.6° (Epoch: 30 May)

Event Time Altitude Azimuth Distance (km) Brightness Sun altitude
Rises 00:19:23 0° 266° (W) 2,330 0.1 -22.7°
Reaches altitude 10° 00:21:33 10° 274° (W) 1,469 -0.8 -22.8°
Maximum altitude 00:24:39 37° 344° (NNW) 651 -2.3 -22.9°
Drops below altitude 10° 00:27:45 10° 54° (NE) 1,469 -0.7 -23.0°
Sets 00:29:56 0° 63° (ENE) 2,330 0.2 -23.0°
